Theta_e
333 332 333 332 331 332 333 338 338 339 338 336 334 332 332 332 332 332 332 330 330 330 328 332 333 335 333 330 330 330 328 333 337 337 336 335 333 334 333 333 334 333 332
333 332 332 329 323 322 331 335 338 338 337 335 334 333 333 332 332 333 333 332 328 329 328 325 334 336 333 333 331 329 326 331 335 336 336 335 335 334 332 333 333 335 334
335 328 330 330 322 322 323 328 333 334 335 335 334 334 333 333 332 333 333 332 331 328 328 327 328 329 331 334 332 327 325 326 334 334 335 336 335 334 330 331 333 334 334
335 332 330 328 321 322 325 329 334 334 335 335 334 334 333 332 332 332 332 331 331 331 330 329 328 328 330 331 330 331 328 325 331 334 333 336 335 335 330 331 333 333 334
335 332 330 324 321 325 327 331 335 334 336 335 335 334 333 332 332 332 331 331 331 331 331 330 327 328 328 328 330 329 331 328 327 332 332 333 335 336 331 332 332 332 334
334 334 333 330 329 330 329 335 336 335 335 336 334 332 331 331 332 332 331 331 330 331 331 329 331 330 328 328 327 332 334 333 327 331 332 333 335 337 333 331 331 334 333
337 336 334 333 330 331 333 336 334 336 335 331 331 331 330 331 331 331 330 330 330 330 331 328 330 330 330 327 327 325 332 330 334 329 332 333 334 335 335 332 333 333 327
337 337 335 333 329 332 335 335 336 333 332 331 331 330 331 331 330 330 330 329 330 330 330 329 328 329 330 332 332 325 323 332 331 332 331 332 335 334 334 333 334 330 321
337 336 336 333 332 336 337 334 334 332 333 330 328 330 331 331 330 329 329 327 327 328 329 331 328 328 330 331 330 329 323 327 330 335 332 333 333 333 333 333 326 324 323
338 336 334 334 336 336 334 333 334 332 331 331 326 328 326 328 330 332 329 327 325 327 326 327 330 329 327 331 329 331 328 324 329 332 332 333 334 334 333 330 324 323 323
338 337 337 337 336 334 333 333 332 331 330 330 328 328 328 328 328 330 330 327 325 328 328 327 327 328 331 331 332 330 327 324 330 330 333 333 333 331 327 323 323 326 324
339 338 337 336 334 333 333 331 331 331 330 329 329 328 328 328 328 329 330 325 326 327 326 327 327 330 331 332 331 329 323 325 330 332 335 333 332 329 328 326 325 324 323
337 336 335 335 334 332 330 330 330 330 330 330 330 328 328 327 327 328 327 327 328 325 326 328 328 329 331 332 329 329 329 325 329 331 334 332 331 328 325 325 325 323 322
336 334 335 333 332 331 330 330 330 330 330 330 330 330 328 328 327 327 327 326 328 327 328 328 329 331 332 330 328 328 330 330 329 329 333 333 329 326 324 323 320 319 321
335 334 333 332 331 331 331 331 330 331 331 328 330 330 329 329 328 327 326 326 328 330 330 328 329 331 331 331 329 328 332 331 330 331 333 330 327 323 320 320 323 324 321
334 333 332 331 330 330 331 332 332 332 331 328 328 330 330 329 329 328 327 325 327 329 330 329 328 331 329 328 328 328 329 330 331 331 331 327 323 321 321 323 322 318 318
333 331 330 330 331 332 331 332 332 332 329 327 327 328 329 329 329 328 328 323 327 328 329 328 329 328 327 327 327 329 330 332 332 331 326 324 323 324 323 321 313 313 316
330 330 330 331 332 332 332 331 331 330 327 327 325 326 329 329 330 330 328 325 327 328 328 328 328 326 325 327 327 327 328 329 326 327 326 324 323 320 320 315 315 314 312
330 330 331 331 330 332 332 332 330 329 328 326 325 326 328 329 330 330 329 328 327 328 328 327 324 324 323 324 324 323 323 323 325 325 322 322 320 319 319 315 315 316 319
330 330 330 331 332 331 329 330 330 329 329 327 325 325 328 329 329 329 329 329 328 328 327 326 323 323 322 322 322 320 319 319 319 320 320 318 318 320 315 321 320 321 321
329 329 331 331 330 326 329 329 330 330 327 325 326 326 327 329 327 327 328 328 328 327 325 324 322 322 320 321 320 319 318 317 317 318 318 319 319 318 318 319 317 316 315
331 330 331 330 328 328 330 328 329 328 326 325 326 327 326 326 326 325 325 327 328 326 325 323 322 322 321 320 319 318 317 317 316 316 316 315 316 315 317 317 317 316 314
329 329 330 328 328 329 329 327 327 327 327 326 327 326 326 325 325 325 324 325 325 325 325 324 323 321 320 319 319 318 318 319 317 316 316 313 315 315 314 315 318 315 313
327 328 329 328 329 330 329 328 327 328 327 326 326 326 325 324 324 323 324 323 323 323 323 324 323 321 320 319 319 319 318 316 315 316 317 315 315 315 313 316 317 315 312
327 328 328 328 329 329 329 327 327 326 326 325 325 325 325 324 324 323 323 322 322 322 323 322 322 320 319 319 319 319 317 318 317 317 316 316 315 314 314 313 314 314 310
329 329 327 328 328 329 328 327 326 326 325 324 324 324 325 323 323 323 322 323 321 319 320 320 319 319 318 319 319 319 319 321 320 319 317 317 315 315 315 310 310 311 309
Wind_Speed
29 26 22 19 17 14 11 10 11 11 12 12 10 10 10 9 9 8 8 6 5 7 11 15 14 15 15 15 13 11 11 15 17 18 18 19 17 13 12 14 15 16 16
30 28 25 23 25 21 13 11 11 11 13 12 11 11 12 11 11 11 9 8 6 9 10 12 15 14 16 15 13 12 12 13 15 16 19 17 13 12 12 13 14 16 16
28 32 27 26 28 26 24 22 19 15 13 12 13 11 12 12 12 12 10 9 8 8 12 12 14 16 16 15 12 11 12 13 14 16 17 13 12 11 13 12 13 16 16
28 29 26 28 31 29 25 19 15 12 13 13 12 11 12 12 13 12 11 10 10 8 10 12 14 13 16 14 12 11 12 12 13 15 13 12 14 13 15 14 13 14 16
25 28 31 33 32 26 22 17 16 13 11 12 12 11 11 13 16 13 13 12 10 10 8 11 14 13 12 11 10 12 11 10 12 14 13 14 16 15 18 14 12 14 20
24 26 24 24 22 20 17 16 15 11 11 11 10 10 13 16 15 14 14 13 11 10 9 9 13 13 13 11 9 10 10 10 10 10 14 14 16 13 15 13 11 17 29
21 22 20 21 22 19 18 20 13 10 10 9 6 11 13 13 12 12 11 12 12 10 8 10 15 13 9 11 9 10 10 10 10 11 14 15 15 13 14 13 15 32 31
19 19 19 19 22 18 18 15 12 7 8 9 6 5 4 5 8 9 9 10 10 9 9 8 12 14 10 7 10 10 12 9 9 10 11 16 16 17 14 14 31 34 31
17 18 18 19 20 18 17 16 14 12 10 7 11 7 3 3 2 4 7 5 6 9 9 8 11 15 11 7 7 9 10 11 11 12 12 14 14 14 17 20 29 34 30
16 17 18 19 20 21 20 17 12 13 10 9 6 10 5 3 3 3 6 3 2 7 7 8 9 12 13 10 8 8 11 13 12 12 13 16 17 18 21 37 35 30 26
15 16 18 19 20 20 18 13 11 12 11 9 10 6 10 7 4 1 3 3 1 1 3 7 11 10 10 10 8 9 12 14 13 13 17 21 21 24 34 34 31 24 25
15 14 17 17 17 15 12 10 10 11 11 11 11 9 9 7 9 4 2 2 1 2 2 7 10 10 9 10 10 9 12 14 14 16 21 23 24 30 30 27 29 28 25
16 16 17 15 13 11 9 10 10 9 10 10 10 10 11 10 7 5 6 5 3 2 2 4 7 8 9 10 9 11 13 15 15 18 23 27 30 32 30 31 32 29 25
15 17 13 12 9 8 8 9 8 8 9 10 10 10 9 10 10 8 7 9 3 2 3 4 4 6 7 7 11 13 11 16 17 21 26 34 37 38 33 32 30 27 24
15 14 11 9 8 8 9 9 8 8 9 10 8 9 10 9 10 10 8 10 9 5 3 5 4 6 7 6 9 11 10 16 20 26 35 36 39 32 33 32 29 27 26
13 12 10 9 9 8 8 8 8 10 10 11 10 9 10 9 10 11 10 9 9 6 5 6 4 6 6 7 6 8 12 20 24 32 36 36 35 37 33 31 29 26 23
12 12 11 10 8 7 7 8 8 8 9 7 9 11 11 10 10 11 11 12 8 8 7 6 7 10 8 8 9 11 17 25 29 40 39 40 39 36 33 30 26 22 20
13 12 10 8 7 5 5 6 7 9 13 10 13 9 9 10 10 11 13 14 9 7 9 13 13 12 14 17 19 24 27 30 39 36 43 40 38 34 31 28 24 22 19
13 11 8 5 4 4 3 5 8 11 15 16 16 11 8 10 11 10 12 14 13 9 12 17 11 16 17 25 29 30 32 36 38 41 37 38 33 29 25 24 23 20 17
12 9 5 4 3 1 3 5 5 8 12 12 13 12 9 10 9 11 11 13 17 16 17 19 18 18 17 23 29 32 29 35 35 38 35 30 25 24 23 19 18 16 14
8 6 8 5 3 2 4 3 3 7 13 12 9 9 9 9 10 11 12 17 21 19 21 19 17 18 19 18 24 27 30 32 29 31 30 25 23 21 21 19 15 14 13
7 10 9 5 4 3 4 5 7 9 10 10 8 8 8 8 9 9 12 17 20 26 23 21 16 22 18 24 29 33 32 28 10 26 28 25 25 20 13 12 13 13 12
10 10 8 5 4 3 4 6 7 7 6 7 9 12 13 12 13 14 18 21 21 20 21 24 24 22 25 32 33 30 27 22 20 25 30 17 17 13 9 13 13 12 12
10 11 7 5 4 4 4 5 8 8 8 8 12 15 16 16 16 20 23 21 20 20 21 18 22 25 27 31 34 33 28 27 27 26 17 7 10 10 9 10 12 12 10
11 8 6 5 4 6 6 7 8 8 8 8 9 13 19 19 20 23 27 29 24 22 20 21 24 29 33 37 42 40 29 26 16 15 8 13 11 10 8 7 10 12 12
9 7 7 4 5 7 7 7 7 9 11 11 12 13 15 22 24 25 26 24 25 25 28 27 26 30 33 36 37 28 29 24 20 11 11 10 15 11 5 9 10 13 15
Wind_Direction
208 206 208 205 202 212 219 223 228 235 242 241 242 252 254 256 255 258 262 260 243 250 261 240 232 234 229 226 234 238 240 231 231 224 221 202 202 197 202 205 204 201 197
209 206 209 211 214 215 215 223 227 232 243 242 246 251 256 258 254 251 257 254 256 249 255 232 227 234 233 231 232 235 234 230 231 221 213 211 204 201 204 204 203 202 202
208 212 212 213 218 221 222 220 218 228 240 242 247 255 257 254 252 248 251 262 268 259 236 232 240 241 232 225 228 232 233 229 223 222 223 219 209 198 194 196 197 199 196
209 211 211 218 222 226 226 228 225 215 230 237 251 260 257 253 254 245 249 254 259 250 242 240 233 223 222 223 222 232 231 227 221 219 221 215 212 201 194 189 192 193 187
209 215 215 223 223 221 224 225 225 228 230 237 251 262 264 262 258 253 248 252 244 242 244 244 222 219 221 223 228 231 226 226 219 218 211 210 209 211 188 182 190 193 178
217 212 209 217 214 212 220 220 222 220 226 243 261 272 267 262 255 246 246 244 238 234 237 233 211 218 222 223 234 227 225 223 219 215 206 205 203 203 195 189 188 175 159
209 204 201 196 207 204 211 219 220 215 229 241 268 268 265 249 238 231 233 235 232 222 226 224 208 208 213 220 228 217 218 218 219 209 201 197 200 200 199 185 175 156 143
202 195 194 199 200 195 207 214 205 204 222 233 233 245 268 217 220 217 218 228 218 204 211 217 204 213 207 211 218 214 209 213 206 202 199 195 190 189 179 179 166 158 145
191 186 185 190 192 189 199 216 209 209 227 206 213 245 225 239 167 171 191 202 206 209 206 197 197 212 207 210 212 215 208 205 197 196 191 189 178 173 168 153 141 145 138
179 176 180 181 184 193 206 219 211 220 220 225 198 222 237 275 258 168 162 170 192 221 211 213 190 198 213 215 217 211 204 199 193 187 176 168 176 171 164 160 142 135 146
165 166 171 176 184 198 208 209 201 207 213 216 209 186 215 225 252 220 126 149 134 183 207 199 197 198 201 205 207 201 196 191 186 181 169 168 168 153 147 147 150 148 153
152 163 169 178 189 197 190 202 204 204 206 208 209 208 211 219 227 206 127 81 138 91 199 189 197 190 190 193 194 193 186 184 180 175 169 165 164 154 152 156 152 147 149
152 163 173 180 183 188 200 198 201 206 209 212 213 218 225 232 232 216 175 140 150 100 111 160 180 178 178 182 192 188 177 184 178 173 170 168 162 159 155 148 151 155 156
157 169 170 177 184 198 194 202 208 213 213 216 214 216 223 230 222 212 177 148 133 122 148 145 140 167 169 182 186 190 187 184 179 178 165 164 163 156 155 157 156 150 146
155 163 169 180 195 195 201 210 217 219 217 225 226 223 222 224 218 202 192 188 167 160 159 153 145 162 172 178 191 187 184 181 176 175 167 167 163 156 154 151 148 155 161
152 162 169 173 179 191 200 210 223 223 217 222 226 228 219 214 208 199 195 189 189 177 157 157 148 149 156 169 175 181 188 175 171 175 171 165 155 155 152 152 155 158 156
152 154 161 170 179 197 212 214 221 215 191 221 225 239 217 200 196 191 187 189 188 185 164 136 130 143 132 150 151 150 152 158 165 172 158 156 154 153 152 153 154 153 154
144 151 158 165 182 195 216 223 220 203 182 197 204 239 219 188 187 183 181 184 184 173 162 146 132 124 126 139 143 145 148 154 151 156 155 151 152 150 156 157 153 155 159
148 154 162 183 194 216 233 247 245 227 210 206 213 222 210 181 167 173 175 179 178 168 151 140 123 126 121 134 124 124 127 132 146 148 149 151 148 152 154 153 153 158 160
155 161 171 151 154 148 317 305 281 217 207 199 208 218 206 195 175 173 170 165 162 152 145 135 128 128 128 125 122 116 108 120 120 133 136 142 152 150 150 148 152 159 163
164 177 146 143 101 19 358 29 83 153 163 166 176 191 200 195 195 182 170 164 160 151 145 134 134 132 130 132 125 123 116 118 124 139 142 148 149 145 135 149 149 160 166
151 147 137 126 80 22 49 86 113 137 160 173 177 172 178 175 162 162 170 163 167 155 149 148 146 145 142 130 134 133 131 129 117 148 134 131 144 136 136 140 161 166 171
155 157 137 113 84 50 90 118 124 134 148 174 178 162 144 147 150 149 158 151 152 153 158 158 153 151 146 146 142 137 139 141 139 152 142 113 144 137 138 161 170 176 182
160 157 135 117 99 91 108 132 132 126 126 144 162 160 151 147 149 147 144 136 141 142 149 152 155 149 149 149 147 143 142 129 133 142 141 127 151 155 159 177 185 187 192
158 150 143 124 107 116 122 133 128 133 128 126 145 161 156 151 151 148 139 133 137 138 146 152 152 157 155 155 158 152 137 137 136 151 152 148 165 157 168 183 200 203 205
152 150 142 117 116 127 130 133 136 135 120 118 129 141 154 155 156 157 145 142 133 133 143 144 147 154 156 155 156 153 150 151 147 150 174 151 161 159 175 213 209 214 216